RYR7WK EGHH-LEPA

Flight info

Callsign RYR7WK
Flight time 2h 5m
Altitude 35000
Route SAM Y8 GWC UN859 SOPIL DCT BALAN DCT EVPOK DCT NARAK DCT GAI DCT LOMRA DCT ROCAN DCT IBRAP N13 LORES
Aircraft B738/M-SDE2E3FGHIRWXY/LB1

Departure

Time 2026-05-04 05:09
Airport Bournemouth Airport (EGHH)

Arrival

Time 2026-05-04 07:15
Airport Palma de Mallorca Airport (LEPA)
Time Latitude Longitude Altitude Speed Heading
2026-05-04 04:39 50.77728 -1.83370 40 ft 0 kts 86°
2026-05-04 05:00 50.77727 -1.83379 41 ft 4 kts 91°
2026-05-04 05:00 50.77740 -1.83439 43 ft 4 kts 71°
2026-05-04 05:01 50.77724 -1.83464 39 ft 4 kts 20°
2026-05-04 05:01 50.77729 -1.83464 44 ft 4 kts 10°
2026-05-04 05:01 50.77754 -1.83464 44 ft 2 kts 356°
2026-05-04 05:01 50.77755 -1.83464 44 ft 0 kts 356°
2026-05-04 05:04 50.77883 -1.83480 45 ft 8 kts 352°
2026-05-04 05:04 50.77938 -1.83492 45 ft 8 kts
2026-05-04 05:04 50.77985 -1.83457 43 ft 8 kts 45°
2026-05-04 05:06 50.78158 -1.82780 44 ft 7 kts 49°
2026-05-04 05:06 50.78198 -1.82732 44 ft 7 kts 28°
2026-05-04 05:06 50.78245 -1.82730 43 ft 7 kts 320°
2026-05-04 05:07 50.78247 -1.82808 43 ft 7 kts 255°
2026-05-04 05:07 50.78241 -1.82843 41 ft 1 kts 255°
2026-05-04 05:07 50.78209 -1.83037 42 ft 50 kts 255°
2026-05-04 05:09 50.80306 -1.97123 3446 ft 264 kts 352°
2026-05-04 05:09 50.82130 -1.96752 4351 ft 270 kts 22°
2026-05-04 05:10 50.83662 -1.95010 5193 ft 277 kts 50°
2026-05-04 05:10 50.84591 -1.92339 6072 ft 280 kts 71°
2026-05-04 05:10 50.85192 -1.89397 6916 ft 283 kts 75°
2026-05-04 05:10 50.85749 -1.86381 7726 ft 287 kts 75°
2026-05-04 05:11 50.86307 -1.83322 8556 ft 291 kts 75°
2026-05-04 05:11 50.86863 -1.80296 9371 ft 295 kts 75°
2026-05-04 05:11 50.87447 -1.77162 10165 ft 299 kts 75°
2026-05-04 05:11 50.88058 -1.73904 10508 ft 321 kts 75°
2026-05-04 05:12 50.88500 -1.71553 10640 ft 337 kts 75°
2026-05-04 05:12 50.89192 -1.67893 11028 ft 353 kts 75°
2026-05-04 05:12 50.89908 -1.64126 11687 ft 360 kts 75°
2026-05-04 05:12 50.90623 -1.60365 12473 ft 363 kts 75°
2026-05-04 05:13 50.91352 -1.56526 13261 ft 366 kts 75°
2026-05-04 05:13 50.92087 -1.52647 13982 ft 370 kts 75°
2026-05-04 05:13 50.92830 -1.48718 14649 ft 374 kts 75°
2026-05-04 05:13 50.93578 -1.44746 15293 ft 378 kts 75°
2026-05-04 05:14 50.94332 -1.40732 15955 ft 382 kts 76°
2026-05-04 05:14 50.94918 -1.36611 16572 ft 384 kts 86°
2026-05-04 05:14 50.94979 -1.32383 17233 ft 384 kts 97°
2026-05-04 05:14 50.94544 -1.28210 17913 ft 383 kts 108°
2026-05-04 05:15 50.93856 -1.24132 18584 ft 384 kts 109°
2026-05-04 05:15 50.93368 -1.21371 18985 ft 386 kts 109°
2026-05-04 05:15 50.93043 -1.19543 19251 ft 387 kts 109°
2026-05-04 05:16 50.92315 -1.15423 19842 ft 390 kts 109°
2026-05-04 05:16 50.91592 -1.11271 20413 ft 392 kts 109°
2026-05-04 05:16 50.90872 -1.07086 20981 ft 395 kts 109°
2026-05-04 05:16 50.90152 -1.02869 21540 ft 398 kts 109°
2026-05-04 05:17 50.89428 -0.98617 22103 ft 401 kts 109°
2026-05-04 05:17 50.88698 -0.94332 22644 ft 404 kts 109°
2026-05-04 05:17 50.87963 -0.90024 23151 ft 407 kts 109°
2026-05-04 05:17 50.87218 -0.85677 23641 ft 411 kts 109°
2026-05-04 05:18 50.86455 -0.81310 24068 ft 412 kts 112°
2026-05-04 05:18 50.85261 -0.77227 24485 ft 406 kts 128°
2026-05-04 05:18 50.83483 -0.73815 24945 ft 400 kts 141°
2026-05-04 05:18 50.81283 -0.71186 25401 ft 395 kts 151°
2026-05-04 05:19 50.78987 -0.68879 25848 ft 396 kts 152°
2026-05-04 05:19 50.76649 -0.66563 26273 ft 398 kts 152°
2026-05-04 05:19 50.74301 -0.64233 26688 ft 399 kts 152°
2026-05-04 05:19 50.71946 -0.61882 27113 ft 401 kts 152°
2026-05-04 05:20 50.69591 -0.59517 27540 ft 402 kts 152°
2026-05-04 05:20 50.67234 -0.57140 27950 ft 403 kts 152°
2026-05-04 05:20 50.64868 -0.54751 28347 ft 404 kts 152°
2026-05-04 05:20 50.62498 -0.52356 28727 ft 406 kts 152°
2026-05-04 05:21 50.60120 -0.49954 29113 ft 407 kts 152°
2026-05-04 05:21 50.57739 -0.47552 29561 ft 406 kts 152°
2026-05-04 05:21 50.55374 -0.45166 30139 ft 402 kts 152°
2026-05-04 05:21 50.53033 -0.42806 30628 ft 398 kts 152°
2026-05-04 05:22 50.50698 -0.40458 30928 ft 400 kts 152°
2026-05-04 05:22 50.48347 -0.38101 31180 ft 402 kts 152°
2026-05-04 05:22 50.45989 -0.35739 31517 ft 402 kts 152°
2026-05-04 05:22 50.43639 -0.33385 31900 ft 400 kts 152°
2026-05-04 05:23 50.41291 -0.31036 32252 ft 400 kts 152°
2026-05-04 05:23 50.38943 -0.28691 32547 ft 400 kts 152°
2026-05-04 05:23 50.36591 -0.26344 32847 ft 401 kts 152°
2026-05-04 05:23 50.34239 -0.24001 33187 ft 400 kts 152°
2026-05-04 05:24 50.31895 -0.21666 33522 ft 400 kts 152°
2026-05-04 05:24 50.29548 -0.19333 33809 ft 400 kts 152°
2026-05-04 05:24 50.27191 -0.16994 34066 ft 401 kts 152°
2026-05-04 05:24 50.24832 -0.14654 34257 ft 402 kts 152°
2026-05-04 05:25 50.22493 -0.12337 34452 ft 404 kts 152°
2026-05-04 05:25 50.20119 -0.09987 34669 ft 404 kts 152°
2026-05-04 05:25 50.17739 -0.07633 34870 ft 405 kts 152°
2026-05-04 05:25 50.15348 -0.05272 34968 ft 408 kts 152°
2026-05-04 05:26 50.10459 -0.00691 34966 ft 408 kts 159°
2026-05-04 05:26 50.05166 0.02007 34979 ft 396 kts 169°
2026-05-04 05:28 49.83840 0.10254 34970 ft 394 kts 169°
2026-05-04 05:29 49.78517 0.12329 34971 ft 394 kts 169°
2026-05-04 05:29 49.73194 0.14400 34972 ft 395 kts 169°
2026-05-04 05:31 49.51870 0.22949 34967 ft 398 kts 168°
2026-05-04 05:32 49.46508 0.25112 34981 ft 398 kts 168°
2026-05-04 05:33 49.38457 0.28350 34963 ft 399 kts 168°
2026-05-04 05:33 49.33085 0.30504 34964 ft 399 kts 168°
2026-05-04 05:34 49.27720 0.32691 34972 ft 399 kts 168°
2026-05-04 05:34 49.22360 0.34957 34963 ft 400 kts 168°
2026-05-04 05:35 49.16997 0.37222 34960 ft 399 kts 168°
2026-05-04 05:35 49.11676 0.39456 34969 ft 399 kts 168°
2026-05-04 05:36 49.06313 0.41699 34964 ft 399 kts 168°
2026-05-04 05:36 49.00956 0.43933 34965 ft 399 kts 168°
2026-05-04 05:37 48.95658 0.46138 34962 ft 399 kts 168°
2026-05-04 05:37 48.90308 0.48360 34970 ft 398 kts 168°
2026-05-04 05:38 48.82286 0.51683 34962 ft 398 kts 168°
2026-05-04 05:38 48.76936 0.53871 34964 ft 398 kts 168°
2026-05-04 05:39 48.68895 0.57002 34960 ft 398 kts 168°
2026-05-04 05:40 48.60886 0.60119 34964 ft 398 kts 168°
2026-05-04 05:40 48.55517 0.62210 34958 ft 398 kts 168°
2026-05-04 05:41 48.50147 0.64312 34960 ft 398 kts 168°
2026-05-04 05:41 48.44817 0.66484 34958 ft 399 kts 168°
2026-05-04 05:42 48.39459 0.68671 34960 ft 399 kts 168°
2026-05-04 05:42 48.34101 0.70845 34951 ft 399 kts 168°
2026-05-04 05:43 48.28737 0.73013 34949 ft 399 kts 168°
2026-05-04 05:45 48.07293 0.81486 34951 ft 398 kts 168°
2026-05-04 05:47 47.85938 0.89829 34944 ft 398 kts 168°
2026-05-04 05:47 47.80581 0.91908 34940 ft 398 kts 168°
2026-05-04 05:48 47.75224 0.93980 34939 ft 398 kts 168°
2026-05-04 05:48 47.69868 0.96048 34957 ft 398 kts 168°
2026-05-04 05:49 47.64537 0.98102 34955 ft 398 kts 169°
2026-05-04 05:49 47.59165 1.00168 34936 ft 399 kts 168°
2026-05-04 05:51 47.40350 1.06443 34936 ft 391 kts 183°
2026-05-04 05:51 47.37635 1.06363 34941 ft 391 kts 183°
2026-05-04 05:52 47.32191 1.06185 34949 ft 391 kts 183°
2026-05-04 05:52 47.26779 1.06040 34933 ft 392 kts 183°
2026-05-04 05:54 47.04951 1.05552 34944 ft 393 kts 183°
2026-05-04 05:55 46.99491 1.05395 34939 ft 393 kts 184°
2026-05-04 05:55 46.94028 1.05147 34948 ft 393 kts 184°
2026-05-04 05:56 46.88559 1.04895 34943 ft 393 kts 184°
2026-05-04 05:56 46.83084 1.04654 34949 ft 394 kts 184°
2026-05-04 05:57 46.77609 1.04417 34943 ft 394 kts 184°
2026-05-04 05:57 46.72128 1.04181 34946 ft 394 kts 184°
2026-05-04 05:58 46.66642 1.03945 34942 ft 395 kts 184°
2026-05-04 05:58 46.61190 1.03711 34949 ft 395 kts 184°
2026-05-04 05:59 46.55662 1.03474 34943 ft 395 kts 184°
2026-05-04 05:59 46.50206 1.03713 34941 ft 398 kts 173°
2026-05-04 06:00 46.44796 1.05507 34939 ft 399 kts 170°
2026-05-04 06:00 46.39386 1.07363 34944 ft 399 kts 170°
2026-05-04 06:01 46.33985 1.09185 34954 ft 398 kts 171°
2026-05-04 06:03 46.13305 1.16057 34962 ft 398 kts 171°
2026-05-04 06:05 45.89119 1.24022 34969 ft 398 kts 171°
2026-05-04 06:06 45.83725 1.25789 34964 ft 398 kts 171°
2026-05-04 06:06 45.78332 1.27552 34965 ft 398 kts 171°
2026-05-04 06:07 45.72937 1.29313 34964 ft 398 kts 171°
2026-05-04 06:07 45.67544 1.31069 34963 ft 397 kts 171°
2026-05-04 06:08 45.62150 1.32822 34959 ft 397 kts 171°
2026-05-04 06:08 45.56757 1.34571 34956 ft 397 kts 171°
2026-05-04 06:09 45.51401 1.36306 34955 ft 397 kts 171°
2026-05-04 06:11 45.29785 1.43269 34947 ft 399 kts 171°
2026-05-04 06:13 45.08132 1.50194 34963 ft 398 kts 171°
2026-05-04 06:14 44.89312 1.56169 34962 ft 398 kts 171°
2026-05-04 06:15 44.83906 1.57878 34953 ft 398 kts 172°
2026-05-04 06:15 44.78498 1.59584 34953 ft 399 kts 172°
2026-05-04 06:16 44.73075 1.61292 34948 ft 399 kts 172°
2026-05-04 06:16 44.67642 1.63000 34947 ft 400 kts 172°
2026-05-04 06:17 44.62209 1.64704 34937 ft 400 kts 172°
2026-05-04 06:17 44.56769 1.66408 34944 ft 401 kts 172°
2026-05-04 06:18 44.51317 1.68112 34942 ft 401 kts 172°
2026-05-04 06:20 44.29479 1.74899 34942 ft 403 kts 173°
2026-05-04 06:21 44.15686 1.77959 34948 ft 401 kts 175°
2026-05-04 06:22 44.10164 1.79161 34944 ft 401 kts 175°
2026-05-04 06:25 43.71635 1.84711 34945 ft 398 kts 180°
2026-05-04 06:26 43.66105 1.85246 34942 ft 398 kts 180°
2026-05-04 06:26 43.60576 1.85782 34946 ft 398 kts 180°
2026-05-04 06:27 43.46739 1.87115 34942 ft 399 kts 181°
2026-05-04 06:28 43.41194 1.87648 34945 ft 399 kts 181°
2026-05-04 06:28 43.35652 1.88180 34944 ft 399 kts 181°
2026-05-04 06:29 43.30108 1.88712 34944 ft 400 kts 181°
2026-05-04 06:29 43.24556 1.89246 34949 ft 400 kts 181°
2026-05-04 06:30 43.18997 1.89780 34946 ft 401 kts 181°
2026-05-04 06:30 43.13434 1.90313 34940 ft 401 kts 181°
2026-05-04 06:31 43.07908 1.90843 34951 ft 401 kts 181°
2026-05-04 06:31 43.02339 1.91374 34941 ft 401 kts 181°
2026-05-04 06:33 42.80146 1.93485 34952 ft 400 kts 182°
2026-05-04 06:34 42.74595 1.94011 34950 ft 400 kts 182°
2026-05-04 06:34 42.69041 1.94536 34954 ft 400 kts 181°
2026-05-04 06:36 42.47112 2.01984 34963 ft 406 kts 172°
2026-05-04 06:37 42.41683 2.03933 34964 ft 406 kts 172°
2026-05-04 06:37 42.36226 2.05889 34975 ft 406 kts 172°
2026-05-04 06:38 42.30758 2.07835 34980 ft 406 kts 172°
2026-05-04 06:40 42.08873 2.15576 34978 ft 407 kts 172°
2026-05-04 06:40 42.03396 2.17505 34986 ft 407 kts 172°
2026-05-04 06:41 41.97975 2.19412 34967 ft 407 kts 172°
2026-05-04 06:41 41.92492 2.21337 34980 ft 408 kts 172°
2026-05-04 06:42 41.86994 2.23263 34982 ft 408 kts 172°
2026-05-04 06:44 41.65273 2.30858 34955 ft 395 kts 173°
2026-05-04 06:44 41.62610 2.31782 34655 ft 394 kts 173°
2026-05-04 06:44 41.60028 2.32682 34315 ft 389 kts 173°
2026-05-04 06:45 41.57419 2.33591 33961 ft 386 kts 173°
2026-05-04 06:45 41.54832 2.34490 33542 ft 383 kts 173°
2026-05-04 06:45 41.52265 2.35382 33153 ft 379 kts 173°
2026-05-04 06:45 41.49726 2.36264 32792 ft 375 kts 173°
2026-05-04 06:46 41.47210 2.37136 32415 ft 372 kts 173°
2026-05-04 06:46 41.44714 2.38001 32046 ft 369 kts 173°
2026-05-04 06:46 41.42243 2.38856 31688 ft 365 kts 173°
2026-05-04 06:46 41.39787 2.39705 31334 ft 364 kts 173°
2026-05-04 06:48 41.22721 2.45586 28783 ft 353 kts 173°
2026-05-04 06:48 41.20361 2.46398 28419 ft 349 kts 173°
2026-05-04 06:49 41.18049 2.47192 28070 ft 346 kts 173°
2026-05-04 06:50 41.01881 2.52722 25605 ft 338 kts 173°
2026-05-04 06:51 40.99657 2.53483 25269 ft 336 kts 173°
2026-05-04 06:51 40.98161 2.53994 25043 ft 334 kts 172°
2026-05-04 06:51 40.95160 2.55017 24591 ft 332 kts 172°
2026-05-04 06:51 40.93680 2.55521 24367 ft 331 kts 172°
2026-05-04 06:52 40.91459 2.56278 24033 ft 329 kts 172°
2026-05-04 06:52 40.89247 2.57030 23699 ft 327 kts 172°
2026-05-04 06:52 40.87046 2.57778 23325 ft 326 kts 172°
2026-05-04 06:52 40.84855 2.58523 22944 ft 324 kts 172°
2026-05-04 06:53 40.82676 2.59263 22585 ft 322 kts 172°
2026-05-04 06:53 40.80509 2.59999 22246 ft 320 kts 172°
2026-05-04 06:53 40.78352 2.60730 21918 ft 320 kts 172°
2026-05-04 06:53 40.76194 2.61460 21586 ft 320 kts 172°
2026-05-04 06:54 40.74034 2.62191 21251 ft 320 kts 172°
2026-05-04 06:54 40.71868 2.62923 20921 ft 322 kts 172°
2026-05-04 06:54 40.69690 2.63659 20586 ft 322 kts 172°
2026-05-04 06:54 40.67523 2.64392 20244 ft 320 kts 172°
2026-05-04 06:55 40.65372 2.65120 19912 ft 319 kts 172°
2026-05-04 06:55 40.63228 2.65845 19581 ft 317 kts 172°
2026-05-04 06:55 40.61124 2.66554 19258 ft 316 kts 172°
2026-05-04 06:55 40.58999 2.67271 18937 ft 315 kts 172°
2026-05-04 06:56 40.56881 2.67985 18612 ft 314 kts 172°
2026-05-04 06:57 40.42835 2.75410 16277 ft 311 kts 156°
2026-05-04 06:58 40.40953 2.76805 15967 ft 310 kts 156°
2026-05-04 06:58 40.39076 2.78182 15654 ft 308 kts 156°
2026-05-04 06:58 40.37205 2.79545 15338 ft 307 kts 156°
2026-05-04 06:58 40.35341 2.80896 15027 ft 306 kts 156°
2026-05-04 06:59 40.33481 2.82241 14712 ft 305 kts 156°
2026-05-04 06:59 40.31628 2.83577 14403 ft 304 kts 156°
2026-05-04 06:59 40.29802 2.84894 14091 ft 303 kts 156°
2026-05-04 06:59 40.27956 2.86224 13779 ft 302 kts 155°
2026-05-04 07:01 40.15049 2.95499 11260 ft 303 kts 154°
2026-05-04 07:01 40.13206 2.96822 10936 ft 301 kts 154°
2026-05-04 07:02 40.11374 2.98137 10622 ft 300 kts 154°
2026-05-04 07:02 40.09551 2.99443 10312 ft 298 kts 154°
2026-05-04 07:02 40.07741 3.00741 10098 ft 293 kts 154°
2026-05-04 07:02 40.05996 3.01992 9887 ft 288 kts 154°
2026-05-04 07:03 40.04241 3.03248 9569 ft 287 kts 154°
2026-05-04 07:03 40.02497 3.04495 9266 ft 285 kts 154°
2026-05-04 07:03 40.00765 3.05733 8975 ft 283 kts 154°
2026-05-04 07:03 39.99082 3.06936 8690 ft 281 kts 153°
2026-05-04 07:04 39.97370 3.08158 8407 ft 279 kts 153°
2026-05-04 07:04 39.95676 3.09366 8129 ft 277 kts 153°
2026-05-04 07:04 39.93993 3.10566 7862 ft 274 kts 154°
2026-05-04 07:04 39.92210 3.11322 7587 ft 268 kts 177°
2026-05-04 07:05 39.90368 3.11254 7353 ft 264 kts 186°
2026-05-04 07:05 39.88542 3.11014 7070 ft 263 kts 187°
2026-05-04 07:05 39.86727 3.10762 6789 ft 262 kts 187°
2026-05-04 07:05 39.86137 3.10681 6699 ft 262 kts 187°
2026-05-04 07:06 39.85390 3.10580 6582 ft 261 kts 187°
2026-05-04 07:06 39.83689 3.10354 6321 ft 261 kts 187°
2026-05-04 07:06 39.81907 3.10123 6024 ft 260 kts 187°
2026-05-04 07:07 39.80108 3.09895 5740 ft 259 kts 186°
2026-05-04 07:08 39.69300 3.05586 4599 ft 220 kts 238°
2026-05-04 07:09 39.68538 3.03905 4468 ft 213 kts 238°
2026-05-04 07:09 39.67794 3.02270 4250 ft 206 kts 238°
2026-05-04 07:09 39.67068 3.00695 4013 ft 201 kts 238°
2026-05-04 07:09 39.66355 2.99161 3799 ft 196 kts 238°
2026-05-04 07:10 39.65657 2.97656 3601 ft 191 kts 238°
2026-05-04 07:10 39.64986 2.96193 3471 ft 191 kts 238°
2026-05-04 07:12 39.60217 2.86080 1786 ft 165 kts 237°
2026-05-04 07:12 39.59643 2.84864 1549 ft 151 kts 238°
2026-05-04 07:12 39.59125 2.83768 1352 ft 139 kts 237°
2026-05-04 07:12 39.58625 2.82709 1163 ft 138 kts 237°
2026-05-04 07:13 39.58126 2.81653 992 ft 139 kts 237°
2026-05-04 07:13 39.57619 2.80576 807 ft 141 kts 238°
2026-05-04 07:13 39.57116 2.79508 622 ft 141 kts 238°
2026-05-04 07:14 39.55099 2.75228 37 ft 120 kts 238°
2026-05-04 07:14 39.54740 2.74469 36 ft 77 kts 238°
2026-05-04 07:15 39.54576 2.74106 37 ft 34 kts 250°
2026-05-04 07:15 39.54551 2.73857 37 ft 20 kts 270°
2026-05-04 07:15 39.54580 2.73745 37 ft 12 kts 351°
2026-05-04 07:15 39.54641 2.73807 37 ft 12 kts 67°
2026-05-04 07:16 39.54680 2.73897 37 ft 11 kts 58°
2026-05-04 07:16 39.54721 2.73983 37 ft 11 kts 58°
2026-05-04 07:16 39.54760 2.74066 37 ft 11 kts 58°
2026-05-04 07:16 39.54819 2.74120 37 ft 12 kts 356°
2026-05-04 07:17 39.54905 2.74064 37 ft 16 kts 328°
2026-05-04 07:17 39.55014 2.73978 37 ft 20 kts 329°
2026-05-04 07:17 39.55122 2.73893 37 ft 13 kts 329°
2026-05-04 07:17 39.55175 2.73847 36 ft 6 kts 309°
2026-05-04 07:18 39.55170 2.73794 37 ft 6 kts 247°
2026-05-04 07:18 39.55176 2.73739 37 ft 7 kts 287°
2026-05-04 07:18 39.55172 2.73681 37 ft 7 kts 242°
2026-05-04 07:18 39.55157 2.73648 36 ft 4 kts 238°
2026-05-04 07:19 39.55133 2.73629 37 ft 4 kts 195°
2026-05-04 07:19 39.55101 2.73621 37 ft 5 kts 190°
2026-05-04 07:19 39.55091 2.73619 37 ft 0 kts 190°
2026-05-04 07:19 39.55089 2.73619 37 ft 0 kts 190°